COSMOS 2529 (757)

Last updated on Sun Apr 12 2026 00:03:25 GMT+0000 (Coordinated Universal Time)

1 43687U 18086A 26099.66934735 -.00000003 00000+0 00000+0 0 9992 2 43687 64.2933 194.9062 0009599 254.3697 105.5563 2.13102142 57829
UTC large
Height (km)
Speed (km/s)
/
Latitude / Longitude
Inclination (degrees)
Orbital Period (minutes)
Azimuth
Elevation
Range (km)
Doppler Factor

Next 0 passes for location: London (51.5072 / 0.1276)

Sorry there are no passes over London.
COSMOS 2529 (757)